Dewpoint
22 22 26 23 23 24 32 34 35 35 35 35 37 38 36 35 44 47 50 50 61 58 51 51 53 56 57 57 63 63 63 62 64 64 59 60 61 59 57 54 53 54 52 54 55 57 57 56 56 58 59 59 60 62 64 65 65 66 67 68 68 68 69 70 70 69 67 68 69 70 68 68 70 72 72 70 73 76 76 74 75 76 77 78 78 77
22 20 26 19 18 20 27 36 36 37 36 35 33 36 36 33 38 51 52 48 60 59 46 48 51 55 56 57 61 64 64 62 60 61 61 59 59 61 59 56 55 55 53 54 55 56 56 57 57 58 59 62 60 63 65 65 66 67 66 67 68 68 69 69 69 68 68 69 67 68 69 66 67 71 70 73 70 73 72 76 76 76 76 78 78 77
24 19 24 21 21 30 28 31 34 35 36 35 32 34 31 32 32 34 36 40 48 50 50 47 48 51 55 56 52 55 58 60 61 61 58 61 61 61 60 57 56 54 54 54 54 56 55 57 57 60 59 60 61 62 64 66 66 67 67 69 70 68 69 69 69 69 69 69 69 68 68 66 66 69 69 69 70 70 71 73 76 76 78 78 77 77
21 18 22 23 28 33 32 34 38 38 36 35 34 34 34 34 30 33 35 39 42 48 49 48 45 51 53 50 47 47 51 58 58 63 64 63 61 62 61 60 57 55 56 55 55 54 54 58 58 60 59 60 61 63 63 64 66 67 69 70 70 70 70 70 70 71 70 69 71 70 70 69 69 69 71 72 72 72 73 74 74 78 78 76 75 75
18 16 19 27 31 36 37 38 38 37 34 35 34 33 34 32 30 32 35 38 40 47 49 44 53 56 49 48 47 47 50 57 60 64 66 66 66 62 62 63 61 57 57 56 55 55 55 58 58 60 61 60 60 61 63 63 64 63 67 69 71 70 70 71 71 71 72 72 72 71 71 71 72 70 71 72 71 72 73 72 75 74 76 76 75 75
18 18 20 33 36 38 38 36 35 35 33 32 34 34 34 33 30 31 35 36 33 37 41 36 45 49 54 46 50 52 51 55 59 63 65 63 64 65 61 62 63 61 57 58 56 56 55 58 59 61 61 59 60 61 62 62 63 65 67 71 72 71 70 70 72 72 72 73 72 71 71 70 70 70 69 69 69 69 69 68 70 73 73 73 75 75
18 22 27 34 36 36 34 33 34 34 31 30 31 35 34 33 32 30 29 31 35 38 38 36 40 45 49 48 52 58 55 54 62 61 65 63 65 64 63 63 61 61 58 57 57 56 54 58 59 61 62 60 60 61 62 62 63 65 68 71 72 71 71 71 73 73 73 74 72 71 69 68 69 69 68 71 70 69 69 70 72 72 74 74 73 74
20 30 34 33 37 34 30 29 32 31 29 29 30 33 35 33 33 31 31 30 31 40 41 40 38 43 48 51 57 62 59 59 57 60 63 64 65 62 63 64 65 62 60 58 57 57 57 58 59 61 62 60 59 61 61 61 63 67 70 71 72 72 71 71 73 73 74 73 72 72 70 68 68 67 68 71 71 72 71 71 72 72 72 74 75 73
22 33 33 32 34 31 26 26 30 32 29 29 28 29 33 34 33 32 31 31 31 30 31 31 35 42 43 54 58 61 58 58 58 60 61 63 63 64 65 64 65 61 62 59 57 58 56 58 58 61 61 60 58 60 61 62 63 66 69 72 73 72 72 71 74 74 73 74 72 72 70 69 68 68 69 70 71 72 73 73 73 73 74 74 76 74
26 32 34 33 31 29 29 27 28 32 29 28 31 31 31 31 32 32 30 30 32 34 33 32 31 38 47 54 55 59 60 58 57 61 63 64 64 64 64 65 67 65 62 61 59 59 58 58 59 60 60 58 57 59 63 63 63 66 69 72 73 72 73 72 75 75 74 73 73 72 71 71 69 69 69 69 70 72 73 73 76 76 75 73 72 75
29 38 35 32 31 27 30 32 31 33 30 24 29 29 28 26 28 31 30 32 32 33 32 31 32 34 44 53 52 56 52 55 61 62 64 65 67 68 67 67 67 65 61 61 61 60 59 60 60 60 59 60 59 59 61 61 63 65 68 72 73 73 73 73 75 74 74 72 72 72 72 72 71 71 70 70 71 72 73 73 74 75 75 74 72 73
28 29 29 25 27 24 27 26 31 32 31 25 26 28 26 28 30 32 30 32 31 31 32 31 31 32 41 51 55 52 56 53 53 55 57 63 64 67 67 67 64 61 64 66 62 61 61 61 61 60 60 60 59 59 60 60 62 65 68 71 73 74 74 73 74 74 73 71 72 73 73 72 72 72 70 71 72 71 73 72 73 75 74 75 73 74
26 26 26 27 32 25 25 26 26 28 28 28 27 27 22 24 25 25 30 27 28 30 31 32 30 35 44 48 49 50 50 51 52 52 52 53 55 64 66 66 65 64 63 63 66 65 62 61 61 60 61 63 62 61 62 61 61 64 68 72 73 74 73 74 74 74 73 72 72 72 72 73 73 72 72 72 71 71 72 72 73 75 75 74 75 74
19 22 21 20 24 30 24 22 21 20 22 25 26 24 22 21 22 25 27 28 28 27 28 29 27 40 48 47 49 49 50 51 52 53 53 54 56 60 63 65 67 65 64 64 66 64 65 64 63 62 62 62 62 61 61 62 63 65 67 72 73 74 74 75 75 74 74 73 72 72 72 72 73 73 72 71 69 69 70 71 73 73 72 74 73 73
13 13 15 16 15 24 22 19 17 16 17 20 21 19 21 24 20 24 23 23 23 27 29 27 25 44 42 46 47 48 50 51 51 52 54 55 56 57 61 67 67 67 66 65 65 63 64 66 65 63 64 64 64 62 61 62 65 66 68 72 74 74 75 75 75 75 73 72 72 72 72 72 72 72 71 70 69 69 69 68 71 73 72 72 73 73
11 11 14 15 16 18 17 17 19 18 16 18 18 19 18 20 23 17 18 20 21 21 23 26 36 40 43 48 47 48 47 49 50 51 53 54 55 56 56 65 65 67 69 66 66 66 66 66 66 65 64 65 65 66 64 64 65 65 68 72 74 74 74 74 75 75 74 73 72 74 73 72 72 73 71 71 71 70 69 70 69 72 73 73 73 73
12 13 15 15 15 16 16 19 19 19 17 18 18 19 19 20 17 18 20 16 19 20 26 32 41 44 46 45 45 46 47 47 48 50 51 52 53 56 56 56 62 67 65 64 66 66 67 65 66 67 65 64 64 65 65 67 66 67 69 71 74 74 74 74 76 74 74 74 73 73 73 72 72 71 70 68 70 66 69 70 70 69 70 73 74 72
12 12 13 15 14 16 17 18 19 19 18 17 16 17 16 22 21 26 16 22 17 14 20 34 39 41 42 47 46 45 45 46 48 49 50 53 54 55 58 58 59 58 60 63 65 69 68 68 67 66 65 64 65 65 66 68 67 68 69 71 73 73 73 74 74 73 74 74 73 73 74 73 72 70 69 67 67 68 68 69 70 69 69 69 71 72
16 13 13 13 14 17 18 18 18 19 19 18 16 21 16 20 23 26 27 19 12 12 19 36 38 39 43 44 43 44 43 45 48 50 50 51 53 55 57 59 60 60 60 62 66 68 69 68 68 69 70 64 64 66 66 67 66 67 69 70 71 70 72 72 71 72 73 74 72 72 73 72 71 70 69 67 68 69 67 66 67 67 67 68 70 71
17 12 13 13 13 15 16 15 16 13 16 18 20 18 19 21 18 23 25 28 24 19 16 33 35 37 44 47 47 47 46 47 47 48 49 50 53 54 57 58 60 60 61 61 61 63 64 68 70 67 69 65 63 64 64 65 65 66 68 69 69 68 71 72 70 72 72 72 71 70 74 74 73 72 69 69 69 67 67 67 65 67 64 67 66 69
16 24 15 12 13 13 14 15 15 14 12 15 17 18 18 20 19 17 17 20 19 22 19 26 33 43 45 47 48 48 48 48 48 48 50 51 53 54 57 58 59 60 61 62 62 64 65 66 66 69 69 67 65 67 66 64 67 67 67 67 69 69 70 69 68 70 73 72 72 72 73 73 73 70 68 67 67 68 68 68 68 65 65 67 66 67
21 18 16 13 12 11 16 18 18 18 18 17 13 15 17 18 16 21 23 16 14 17 20 22 29 44 45 47 49 49 48 48 48 49 49 51 52 54 56 58 59 59 61 61 62 63 64 68 68 67 68 70 69 70 69 70 65 66 68 67 68 68 67 67 66 69 73 73 72 71 73 72 73 72 69 66 66 67 67 68 69 68 66 64 67 67
24 25 13 13 10 10 16 17 19 18 19 18 18 15 12 14 16 19 20 20 15 15 17 38 38 44 47 49 49 48 48 48 48 48 49 50 52 52 54 56 57 59 59 60 61 62 63 66 69 68 70 69 71 72 71 71 68 68 67 68 69 68 69 66 66 68 72 72 73 73 72 72 72 72 70 66 64 63 63 66 68 69 67 63 63 67
31 23 17 18 20 16 17 16 17 17 17 17 18 19 18 18 17 18 20 26 28 20 20 35 38 41 46 49 50 48 50 48 49 48 49 49 51 51 52 55 56 57 58 59 61 61 63 63 65 67 70 70 70 72 72 70 71 70 69 69 69 72 69 67 67 67 71 72 72 72 72 72 70 68 68 65 62 61 62 62 65 68 67 65 62 62
19 27 24 21 21 19 14 16 13 15 15 15 14 18 21 20 20 20 22 28 28 26 18 20 38 43 45 49 48 47 46 46 46 47 48 49 50 49 51 53 54 56 56 56 58 60 61 62 63 65 66 70 70 71 72 72 72 71 72 72 72 73 73 72 68 68 70 71 71 71 71 70 68 67 67 65 61 60 60 60 60 64 66 65 62 61
25 22 28 24 17 16 15 16 16 16 14 14 18 18 22 20 23 24 22 28 24 33 34 27 43 46 47 49 47 46 46 47 47 46 47 49 50 49 49 50 53 53 54 55 56 57 59 61 63 64 65 67 66 70 71 72 71 72 72 72 73 73 69 72 71 69 69 70 70 71 71 70 68 66 66 65 62 60 59 59 59 59 63 65 64 62
25 22 28 33 29 28 32 31 22 20 14 14 16 18 18 19 21 23 24 25 21 28 32 43 44 44 45 46 46 46 46 46 45 47 47 47 48 50 52 50 50 52 52 52 54 56 59 61 61 63 63 62 65 66 65 68 68 68 70 71 73 72 71 71 72 73 67 70 69 71 70 70 69 67 65 66 64 62 60 58 57 57 58 62 64 63
27 20 21 25 26 22 15 19 16 18 17 16 14 14 16 20 24 24 22 23 40 29 23 45 47 42 44 45 46 47 46 47 46 47 47 47 48 48 49 51 53 49 51 52 53 55 56 58 60 61 62 61 61 62 64 67 66 67 69 70 70 69 68 70 70 71 69 68 69 71 70 70 69 69 68 67 70 67 62 59 58 59 60 60 63 62
25 19 21 17 18 15 14 13 12 14 16 17 15 14 16 18 24 23 30 30 36 32 34 45 46 44 44 44 46 47 48 47 46 46 47 47 47 49 51 49 48 48 50 50 52 54 55 55 58 60 60 60 61 61 62 63 65 67 68 71 72 71 72 73 72 69 67 68 71 71 72 73 71 71 70 69 69 69 66 63 62 62 62 62 61 60
28 20 20 15 18 13 13 12 12 11 13 12 11 15 15 15 20 27 28 29 32 41 42 40 44 43 41 43 45 47 48 49 49 48 47 47 45 49 48 50 48 48 49 50 52 53 54 55 56 58 59 61 61 61 61 63 65 66 67 68 69 72 72 73 73 71 70 69 69 70 72 74 74 73 72 71 71 72 71 67 64 61 62 62 62 64
26 27 24 16 19 16 12 10 7 9 14 12 12 13 13 15 22 24 28 33 34 33 36 38 43 43 44 46 46 47 49 49 50 49 47 49 47 45 46 47 49 49 50 51 54 53 54 55 56 57 58 59 61 61 61 62 63 64 65 68 70 72 73 72 72 72 70 71 70 71 72 73 73 74 74 74 72 73 73 72 68 67 70 67 66 68
17 27 20 20 17 18 13 7 10 9 9 10 14 14 14 15 20 25 25 28 28 34 37 38 42 44 44 47 46 48 48 49 50 51 50 48 48 49 48 46 47 50 50 51 52 53 54 54 55 56 57 58 59 61 62 63 62 63 65 66 68 70 72 72 73 71 71 70 72 72 73 73 73 74 74 75 75 75 75 73 72 72 71 66 65 71
24 26 18 16 13 17 13 8 8 10 9 7 10 11 15 17 20 22 30 34 38 35 36 39 46 44 43 46 44 45 46 48 49 50 50 50 50 49 49 49 50 47 50 52 52 53 53 54 55 56 56 56 56 57 60 61 61 63 65 66 67 68 69 71 72 72 72 73 74 73 72 73 73 73 74 75 75 75 75 75 74 72 70 67 67 67
26 21 17 20 16 16 15 8 11 10 6 9 17 11 16 15 30 32 32 33 38 36 37 41 42 44 43 42 42 41 45 48 49 50 51 50 49 49 49 49 49 52 52 52 52 52 54 56 57 56 57 58 57 54 57 59 59 61 63 64 65 66 68 69 69 72 72 72 73 74 74 74 73 73 74 75 76 75 74 74 74 72 69 69 70 70
23 24 23 25 17 19 19 15 11 9 8 30 28 28 28 29 29 30 33 37 36 40 42 41 41 43 44 43 45 45 46 45 45 48 50 48 49 48 48 47 48 51 52 53 53 52 54 55 57 58 58 57 56 56 56 57 56 60 62 63 63 64 65 66 68 70 71 71 72 73 73 73 73 73 74 74 75 75 74 75 74 73 71 68 68 70
24 18 25 18 19 23 19 11 15 8 30 29 25 25 26 22 20 30 35 37 37 36 40 40 42 43 44 43 42 43 44 42 45 47 47 49 49 48 44 45 45 45 49 51 52 54 55 54 56 57 58 59 57 56 57 57 56 59 61 62 62 63 64 65 66 66 67 69 69 71 72 74 74 73 73 74 75 74 74 73 74 74 73 71 67 68
31 32 25 20 22 20 17 11 9 31 24 27 25 28 18 24 25 27 26 32 34 33 35 36 38 38 35 34 38 35 35 37 40 45 45 47 46 46 43 45 44 44 45 47 46 51 53 54 54 57 58 58 58 58 57 59 57 58 60 60 60 62 63 64 65 65 66 66 68 69 70 71 71 73 75 74 73 73 73 73 73 73 73 72 70 67
33 32 32 29 27 21 18 14 15 18 15 23 29 27 23 29 33 31 33 31 36 34 34 36 38 37 36 35 36 37 39 41 40 43 45 41 41 43 42 44 42 44 43 45 47 46 50 51 51 54 55 56 57 57 57 60 59 59 60 61 60 61 61 62 63 64 65 65 66 67 68 69 70 71 72 74 73 72 73 74 72 71 72 72 71 69
28 32 37 27 25 19 17 17 15 16 19 33 31 28 30 31 31 30 26 23 39 35 33 35 34 36 38 37 40 39 35 33 35 43 42 40 38 39 41 42 41 41 42 43 45 45 47 49 50 51 53 53 53 55 57 58 60 59 59 59 59 62 62 62 63 63 63 64 65 66 67 67 69 70 70 71 72 73 73 72 72 74 75 74 70 71
26 23 26 18 24 24 20 14 12 17 30 36 32 29 24 28 26 25 17 12 40 35 33 34 34 36 39 41 39 37 36 32 39 42 37 37 37 38 42 43 44 42 41 42 42 47 50 51 50 48 48 48 53 53 54 57 58 60 60 60 59 61 62 62 63 64 64 64 64 65 66 67 68 69 70 70 71 74 73 74 73 73 73 74 74 73
26 26 23 19 15 19 25 18 16 25 37 36 32 30 27 26 23 23 18 33 42 39 40 40 39 39 41 39 36 34 38 40 41 40 37 37 36 39 41 41 42 43 44 42 43 50 46 48 49 47 46 49 52 50 51 54 55 58 59 61 60 61 61 61 62 64 64 64 63 64 65 66 66 67 68 69 70 74 73 72 73 73 73 73 73 74
28 29 28 25 20 18 19 16 15 20 36 35 32 32 31 27 21 20 41 44 43 41 41 38 39 40 40 39 39 38 39 38 38 35 37 36 38 41 41 41 42 44 45 47 49 48 46 45 48 50 47 49 47 48 50 54 56 57 58 59 59 61 61 61 62 62 63 63 63 63 64 65 66 67 66 69 71 73 73 74 74 73 73 74 74 73
27 26 23 22 24 19 24 25 21 18 37 36 37 32 31 25 35 44 44 43 42 41 40 38 38 39 38 39 38 39 37 33 35 35 37 40 39 40 42 43 46 46 46 48 47 47 46 48 47 47 51 50 48 50 51 52 55 57 58 58 59 60 61 62 62 62 62 63 63 64 64 66 66 66 67 68 71 72 73 74 74 73 73 73 73 73
33 27 25 25 25 23 21 19 21 27 37 37 36 32 35 31 42 44 42 40 41 40 39 39 39 38 37 37 36 35 37 36 37 38 40 41 40 41 42 45 46 47 46 44 45 47 48 49 50 50 51 50 53 54 54 53 54 56 57 58 59 59 61 61 61 61 62 62 63 63 64 65 65 65 67 68 70 72 72 73 74 73 73 73 72 71
35 31 39 33 34 25 25 34 38 38 38 37 36 41 41 43 45 44 41 40 40 39 41 38 40 41 40 39 39 38 36 37 38 37 38 39 41 41 43 45 45 46 46 46 45 49 49 49 51 50 51 52 54 55 56 54 54 55 57 58 59 60 59 60 61 61 61 61 61 62 62 62 64 65 67 68 68 69 71 72 73 73 73 73 73 72
38 38 44 39 33 35 34 35 42 39 37 36 31 37 39 43 45 41 38 36 38 39 40 39 39 40 40 42 38 38 38 39 39 37 38 40 41 42 45 45 46 46 45 46 48 49 49 50 51 51 51 53 54 55 56 56 55 54 55 57 59 59 59 59 60 61 61 60 60 60 60 60 62 64 66 66 67 68 69 70 71 71 72 73 73 73
33 35 36 30 34 29 27 35 35 39 39 38 34 36 37 37 44 41 38 38 40 42 41 41 40 41 39 40 40 41 38 38 38 40 43 43 42 44 43 44 45 45 46 46 48 49 49 50 49 49 50 51 52 53 53 55 55 56 56 56 56 57 58 59 60 60 60 60 60 60 59 61 61 62 64 65 65 66 67 69 70 70 71 72 72 72
33 37 34 33 32 29 30 35 37 37 38 38 35 35 38 38 40 41 40 41 41 43 43 43 42 39 38 37 40 42 41 40 41 43 43 43 44 43 44 44 45 45 46 47 48 49 49 49 49 49 50 50 51 52 53 54 55 56 56 53 52 54 57 58 59 58 59 59 60 60 60 60 61 62 60 63 64 63 64 65 66 67 69 70 72 71
41 39 33 37 33 31 34 35 37 39 39 39 39 38 38 39 41 42 42 40 40 42 43 42 42 40 38 38 39 40 42 42 42 43 41 41 42 43 43 43 44 44 45 46 47 49 49 49 48 49 49 50 51 52 53 54 55 55 57 56 56 56 58 57 58 59 59 59 59 59 60 60 61 60 59 61 63 63 64 64 64 65 67 69 70 71
37 35 36 35 33 31 32 36 39 34 35 38 39 39 39 39 40 40 41 41 40 42 44 42 42 41 37 37 40 40 40 42 43 42 40 40 41 42 42 42 43 43 44 45 46 47 48 49 49 49 49 50 51 52 53 54 54 55 54 56 56 56 57 57 56 57 58 58 58 58 58 59 58 58 59 59 61 62 64 64 58 62 64 64 65 64
40 42 37 33 34 32 37 39 44 43 43 41 42 42 42 41 39 39 41 42 41 41 44 44 43 42 42 41 42 41 42 41 41 40 40 39 41 42 41 44 43 44 44 45 46 47 48 49 49 49 49 49 51 51 52 53 53 54 54 55 56 56 57 57 56 55 55 56 56 56 57 58 58 59 60 61 61 61 61 61 63 54 51 56 58 56